Wind_Speed
19 20 21 20 19 18 16 15 15 16 16 16 18 20 20 19 16 17 17 18 20 22 23 24 25 24 10 7 6 3 3 14 12 9 11 8 7 4 2 2 3 10 7 6 7 2 1
23 20 21 23 21 21 19 18 16 17 17 16 16 16 16 17 16 14 16 19 19 22 23 23 24 21 5 9 2 4 12 15 10 12 9 7 1 1 2 4 5 4 11 9 1 5 5
23 26 26 21 24 24 22 21 20 19 17 16 16 16 16 14 16 17 16 18 19 21 24 25 22 7 6 13 2 5 12 9 8 11 7 6 3 5 2 4 2 9 7 3 6 7 3
24 24 25 28 26 22 24 23 22 20 19 17 16 16 16 15 12 17 17 16 20 23 25 23 10 2 8 4 6 8 11 6 5 9 5 3 4 5 4 4 5 5 4 3 6 6 4
25 25 25 25 29 29 25 24 24 23 19 18 17 16 16 15 12 15 16 16 19 23 20 8 4 4 6 4 6 14 14 5 8 7 7 4 7 4 4 7 8 6 4 2 4 7 3
27 27 27 27 27 26 31 27 25 26 22 19 18 16 17 16 12 13 14 16 19 13 2 2 5 6 7 4 6 7 16 9 3 8 5 7 7 8 7 8 7 3 6 5 9 9 8
32 31 31 30 28 26 26 31 29 25 25 22 19 17 15 14 12 11 10 6 6 5 6 8 0 6 1 1 4 10 10 12 9 7 11 9 10 11 12 7 2 3 4 5 1 4 5
36 35 34 34 33 30 26 25 31 28 26 24 20 17 15 14 13 8 7 4 2 3 9 15 21 19 18 4 4 10 14 12 11 14 9 6 12 6 4 5 8 8 6 4 4 2 5
39 38 37 36 35 34 31 27 28 31 26 26 22 17 16 13 12 9 10 9 2 1 6 9 11 11 9 15 11 16 18 12 15 16 14 13 4 5 7 7 9 8 8 4 3 2 4
43 42 41 40 38 37 35 32 30 27 31 26 24 19 15 11 6 8 7 6 5 7 5 6 7 8 10 11 12 17 24 16 8 17 12 11 3 7 7 7 9 10 9 3 4 5 4
44 44 43 41 40 40 38 36 34 32 29 30 23 21 17 15 6 6 5 2 9 7 7 6 5 4 8 18 12 17 26 11 18 13 9 9 10 10 9 8 9 5 8 4 4 3 4
45 45 44 44 42 41 41 39 37 34 29 29 28 23 19 12 15 7 7 3 4 5 9 4 7 9 9 15 9 14 13 9 9 13 13 10 2 5 6 3 8 8 7 4 3 2 6
47 46 47 45 45 43 41 41 38 37 32 29 28 25 25 16 13 13 7 3 6 9 3 7 7 8 14 12 12 17 21 22 17 17 17 16 13 6 5 7 6 13 10 9 7 6 7
48 48 48 47 47 45 43 43 42 37 33 30 29 27 28 25 25 20 12 6 13 12 17 3 4 10 11 13 14 15 22 22 24 21 14 15 15 13 10 12 9 17 16 8 6 6 4
48 48 49 48 48 48 45 44 44 41 36 30 25 26 27 25 25 21 8 14 15 19 19 8 8 8 11 12 8 14 20 26 25 22 17 16 17 5 5 4 7 7 11 3 3 1 4
50 49 50 51 50 49 48 46 46 44 38 32 24 17 26 23 25 12 7 25 17 13 12 17 23 11 11 15 14 16 17 19 25 24 19 9 12 7 7 5 4 7 11 6 5 6 7
47 51 50 51 53 52 50 49 48 47 41 35 23 6 16 28 22 4 10 25 29 15 14 12 13 19 12 10 17 15 14 7 23 20 20 13 11 7 7 11 13 5 6 3 3 3 6
49 38 39 44 54 56 53 52 51 51 44 39 14 10 25 36 11 8 11 32 28 23 18 10 9 11 10 12 13 18 19 14 16 22 22 20 11 12 12 3 6 9 12 13 7 8 1
35 38 39 40 38 57 54 54 55 56 53 38 9 4 34 34 14 14 26 31 27 18 22 12 13 13 8 8 8 15 12 7 13 19 15 14 12 12 14 7 4 9 11 11 4 0 9
43 44 42 40 40 41 53 54 58 61 60 37 7 7 6 14 18 27 32 27 28 22 23 18 12 9 7 10 4 3 8 4 9 16 3 19 15 19 13 15 12 12 13 14 14 9 11
46 46 45 44 41 42 45 48 61 64 64 36 8 7 10 14 21 30 30 28 30 32 22 15 15 19 13 8 5 4 3 5 5 5 8 13 19 16 18 17 18 19 16 18 18 16 15
48 49 48 48 47 45 42 42 59 67 66 22 8 8 13 15 27 30 30 30 31 28 25 25 19 15 14 13 4 5 5 8 1 5 9 7 10 12 16 16 13 16 18 19 19 20 14
47 48 50 50 51 48 47 47 61 68 66 9 12 20 12 14 27 21 24 32 28 29 29 21 21 16 17 16 12 4 6 7 11 3 8 7 8 7 14 7 7 6 17 17 18 17 16
45 49 52 52 53 51 48 47 49 70 63 30 27 13 10 13 18 24 34 29 31 28 26 19 15 18 5 2 3 1 5 6 8 12 10 6 8 5 5 5 7 9 2 17 19 18 16
38 41 52 56 52 50 49 48 44 72 65 32 32 10 8 10 18 25 26 28 21 20 24 21 8 11 6 0 6 5 3 4 8 6 10 10 7 4 5 9 11 4 6 8 12 16 17
22 27 50 53 50 49 47 47 53 74 68 27 29 19 4 11 14 15 23 22 20 19 18 22 13 8 6 3 4 6 7 10 6 5 2 6 6 7 4 8 9 10 13 11 5 13 13
17 24 39 45 46 47 44 38 63 68 64 28 18 25 8 7 6 12 14 18 25 18 14 17 13 9 6 3 4 4 6 8 12 4 5 5 4 11 10 6 7 4 8 11 9 13 1
15 34 35 39 48 46 45 43 62 64 61 28 15 20 13 4 5 4 2 16 17 16 16 15 10 6 6 9 6 4 4 5 8 12 5 9 10 5 7 6 10 12 10 11 12 2 4
31 33 37 41 45 44 42 48 60 57 54 28 16 14 12 5 4 3 6 18 18 28 15 16 10 15 8 8 6 5 2 1 7 6 4 5 6 4 9 7 3 20 14 16 6 5 5
Wind_Direction
288 285 283 283 287 288 289 291 293 293 299 300 285 280 281 283 288 296 301 308 315 319 323 326 328 340 346 275 260 269 180 167 170 185 190 185 188 215 201 271 265 252 300 324 325 280 139
287 292 283 281 280 282 286 284 285 290 292 297 306 303 298 281 286 288 293 299 307 314 318 320 323 336 296 269 314 273 160 168 185 198 202 219 211 313 242 292 270 349 296 309 209 156 154
284 276 281 291 275 276 278 279 282 282 287 290 295 304 306 294 283 282 288 294 301 308 312 313 311 325 264 262 248 193 165 186 204 211 209 232 246 244 348 260 299 292 280 196 165 172 163
284 281 281 274 285 279 274 274 276 280 281 283 285 294 301 303 282 282 280 287 298 303 308 308 286 233 261 243 197 190 186 206 209 215 254 265 253 281 249 321 236 263 247 227 137 199 161
282 281 279 276 271 275 281 269 271 271 276 279 283 287 297 297 284 275 284 293 299 299 305 294 250 229 255 206 207 213 197 203 191 217 242 259 259 271 219 262 249 203 240 110 83 208 197
274 275 275 274 275 271 267 278 264 267 266 272 276 281 293 296 294 278 282 298 294 296 279 194 250 251 223 210 159 172 197 194 189 182 212 224 238 242 220 238 237 176 222 208 194 172 222
273 272 268 268 269 271 269 263 272 258 262 264 268 273 281 294 292 285 297 304 238 192 212 244 227 287 168 209 170 187 175 180 213 217 223 207 237 224 216 210 299 282 248 247 66 115 246
270 266 265 264 262 261 263 264 262 269 253 256 259 264 268 284 288 282 284 260 296 3 293 254 253 252 255 293 199 182 167 178 195 217 206 217 237 224 190 194 223 238 217 180 170 16 251
272 268 263 260 257 257 257 259 261 263 267 250 253 253 258 272 284 261 238 244 192 276 260 270 230 238 217 200 222 190 183 196 200 213 210 243 123 164 197 185 203 223 200 155 298 157 225
272 269 267 261 256 253 253 251 257 256 262 260 247 246 249 256 259 226 231 220 209 209 271 237 214 230 183 194 218 197 194 183 194 212 209 235 177 229 210 213 225 208 204 173 163 209 234
268 266 265 257 253 250 250 249 249 251 255 255 245 242 239 223 316 209 138 150 144 177 279 127 165 151 167 187 135 193 187 188 198 180 190 204 193 195 215 219 204 235 162 242 273 225 250
267 263 258 257 253 247 243 246 244 248 249 246 241 233 232 239 249 226 170 98 196 207 242 199 154 188 165 203 207 142 168 213 224 190 213 229 165 222 224 184 216 142 160 158 195 194 237
265 263 258 253 251 246 240 237 240 240 242 241 245 226 216 227 239 234 226 198 196 221 113 194 190 189 203 184 192 181 176 187 191 190 200 204 210 194 204 220 194 200 220 226 229 196 243
262 259 256 253 249 244 238 234 233 234 236 236 238 234 218 216 236 273 215 201 220 215 218 128 180 188 197 182 199 191 184 196 213 208 193 208 204 205 185 234 236 211 216 226 241 226 212
259 256 252 248 246 241 235 231 225 227 227 227 229 223 222 215 207 242 228 205 213 218 214 190 191 200 201 197 206 183 197 203 199 204 203 204 221 141 198 198 231 179 220 250 203 48 263
262 257 250 246 242 238 233 227 220 219 217 215 209 211 219 207 191 202 247 219 219 225 199 222 224 207 200 195 199 195 189 209 206 202 208 192 217 195 142 171 167 261 143 181 216 213 226
258 257 253 248 240 234 229 224 217 209 206 202 192 213 203 191 185 182 230 215 232 211 228 211 211 219 223 193 202 205 193 173 202 197 207 203 223 156 170 204 208 174 194 222 267 257 241
260 247 250 249 243 230 224 220 212 200 194 185 184 211 170 170 190 203 204 223 227 220 231 246 260 220 211 207 205 211 216 211 192 192 196 207 214 222 213 107 288 269 233 207 223 198 229
259 250 249 248 244 226 220 213 207 195 187 176 182 185 169 171 191 208 201 225 231 228 228 211 204 211 201 210 209 213 210 197 170 184 192 176 211 213 217 202 196 222 208 223 209 235 233
252 247 245 240 239 235 222 212 204 191 185 177 160 169 159 199 199 204 202 208 222 233 243 219 219 211 186 212 183 188 214 154 197 201 151 178 202 216 222 225 214 210 216 215 219 231 250
251 245 240 235 233 231 227 221 200 186 182 176 178 188 175 182 200 204 210 196 203 209 222 233 223 223 197 217 188 206 170 130 163 178 197 200 217 215 229 240 244 236 237 217 224 237 256
253 243 236 231 226 224 221 207 196 182 178 183 169 189 176 177 195 203 214 208 195 200 213 219 229 205 217 232 206 118 113 54 334 167 186 189 211 210 222 233 237 240 241 246 233 246 258
251 241 232 227 220 216 210 210 197 181 174 172 194 220 195 196 196 197 213 212 194 195 209 216 226 238 233 235 295 353 321 287 287 242 190 179 203 197 233 216 230 254 238 235 233 234 239
251 238 225 218 213 210 203 201 200 178 176 180 181 190 199 194 190 203 204 210 201 194 198 211 217 216 198 305 319 349 300 335 260 237 240 184 191 191 221 179 222 243 242 225 230 239 232
243 238 222 204 206 201 198 196 201 175 178 184 176 180 195 203 195 196 197 213 200 197 201 204 194 233 151 90 213 236 197 237 235 225 215 219 186 180 176 217 256 203 195 188 202 240 235
237 233 195 189 193 193 192 192 192 173 178 180 182 189 209 199 198 175 189 198 199 192 184 197 166 122 114 200 211 204 199 211 202 170 169 183 239 230 173 220 236 249 211 203 219 254 246
189 175 173 182 184 182 183 187 173 172 176 167 170 192 196 192 159 194 182 191 193 197 191 180 164 175 161 214 225 205 209 179 216 213 184 170 186 206 213 233 242 210 164 160 206 257 97
188 181 184 175 177 175 177 175 171 174 176 167 164 182 185 175 133 69 74 200 188 200 188 172 161 177 176 208 212 184 214 207 200 212 187 198 174 180 206 215 244 148 142 205 230 225 213
148 152 157 166 165 169 172 171 164 173 173 169 157 165 181 199 87 82 331 288 274 199 191 173 181 172 178 190 212 221 165 74 197 221 178 248 232 213 209 215 191 183 209 220 231 217 195
Height
840 839 839 840 839 839 839 837 836 836 834 834 832 831 831 831 829 829 828 826 824 822 819 816 813 810 806 799 788 785 785 788 790 792 789 785 783 781 781 780 781 784 775 773 771 774 777
835 835 834 835 835 835 835 835 833 834 832 831 830 829 827 827 827 825 824 823 821 820 818 815 812 810 810 799 787 786 784 788 790 791 789 786 780 779 779 780 782 775 776 774 773 773 775
830 830 830 829 830 830 831 831 831 831 830 829 827 826 825 823 823 823 821 820 818 816 814 813 810 810 807 791 785 787 787 789 789 790 788 787 784 780 778 778 775 774 778 771 774 776 776
825 825 825 824 825 825 826 827 827 827 827 826 825 823 822 821 818 820 818 815 815 813 811 809 807 808 795 784 783 785 788 789 789 791 790 791 787 780 779 774 772 775 775 775 773 773 774
820 820 819 819 819 820 820 821 822 823 823 823 823 822 819 818 816 816 815 812 810 808 807 807 809 805 787 782 781 781 785 785 788 789 790 790 788 779 777 776 774 771 777 775 777 770 771
813 814 813 813 813 814 815 815 816 818 818 819 820 820 818 817 814 812 812 809 805 803 805 806 808 805 781 775 775 779 782 784 785 787 789 788 783 778 774 775 782 776 775 770 775 768 770
806 806 807 807 807 808 809 809 810 811 814 814 816 816 816 815 812 811 811 807 804 800 802 784 780 778 772 774 774 776 779 783 783 783 785 782 785 780 768 768 770 773 773 772 765 766 771
797 797 798 799 800 801 802 803 804 805 808 810 811 813 814 812 811 809 809 804 801 804 791 781 779 776 775 776 771 769 775 777 781 783 778 786 783 766 769 771 776 775 773 773 767 768 773
786 787 787 789 792 793 795 796 798 799 801 804 806 809 810 810 810 807 806 804 802 803 793 770 769 766 767 772 767 759 765 766 772 776 777 776 768 769 771 773 777 773 770 775 774 772 769
774 775 776 779 781 784 787 789 791 793 795 798 802 805 807 809 810 804 800 799 800 803 786 761 763 755 758 758 762 752 756 759 768 771 771 772 764 773 771 771 770 775 763 770 773 776 779
763 764 766 767 769 773 777 781 784 787 789 792 797 801 804 806 802 800 798 797 795 802 791 744 754 753 750 748 743 750 751 756 760 765 772 770 768 772 772 766 764 768 766 769 769 772 776
750 751 754 756 758 762 765 770 776 780 783 786 790 796 802 802 800 798 797 797 798 791 777 746 745 752 754 749 742 744 749 752 748 755 760 755 758 760 758 761 762 765 770 771 770 773 789
737 738 740 743 747 751 755 760 765 771 776 780 784 789 794 800 797 797 795 795 792 778 746 741 742 746 744 743 741 740 744 752 754 766 764 758 759 755 759 765 765 765 769 782 786 788 790
722 724 726 729 734 739 743 748 756 761 767 774 779 786 787 789 798 795 794 790 776 739 743 733 735 738 743 734 735 737 739 749 743 744 750 761 771 756 752 757 761 762 761 779 800 794 779
708 709 712 715 720 725 731 737 744 753 760 768 774 779 782 783 789 795 788 776 747 734 732 732 734 739 738 734 730 733 733 736 735 734 748 755 757 749 751 752 754 764 768 753 777 791 786
691 693 695 699 705 711 718 725 733 743 751 761 767 775 772 779 782 791 782 756 734 726 724 725 731 727 730 731 732 729 731 727 731 729 726 744 759 749 754 754 758 755 750 774 771 793 795
672 674 678 682 688 695 703 712 721 731 742 754 764 768 757 770 779 783 773 750 735 727 725 726 724 719 723 725 721 728 724 729 721 730 726 732 744 760 755 756 749 762 759 762 759 766 776
653 656 661 666 671 677 686 696 708 718 732 744 752 752 749 763 773 759 763 739 735 733 728 726 722 721 722 720 721 722 725 720 715 715 735 728 742 754 749 743 742 736 742 749 765 771 773
641 643 647 651 655 659 667 680 691 703 715 729 735 744 745 750 749 753 736 735 736 735 729 728 722 721 719 722 726 718 718 713 716 718 722 730 742 756 751 753 748 748 745 745 752 760 765
627 629 632 637 642 647 653 664 675 686 699 715 725 731 734 740 725 733 714 724 732 735 729 723 719 720 720 723 717 720 717 720 718 711 721 723 726 738 749 741 734 750 744 743 747 759 755
610 613 618 622 628 635 642 649 660 671 685 700 707 705 701 713 714 703 705 704 719 729 728 723 723 718 720 725 719 721 718 720 723 728 719 721 730 729 726 726 727 733 733 736 744 742 747
591 595 600 608 614 622 631 636 641 657 674 688 691 687 690 693 704 702 705 696 708 717 722 727 724 720 718 721 715 723 717 721 719 724 721 720 728 727 734 726 732 733 726 726 730 730 728
570 574 581 590 599 609 619 628 632 645 661 674 684 682 680 680 695 700 694 697 695 709 714 714 720 726 724 721 721 720 726 725 723 722 723 723 725 735 738 736 738 753 734 725 725 723 727
547 552 560 572 584 596 608 619 624 635 648 663 670 676 679 672 680 681 688 697 699 696 707 714 716 722 728 724 729 725 722 721 722 719 717 725 727 731 736 758 757 714 712 709 716 713 713
526 531 539 554 571 585 598 610 620 626 647 660 668 671 671 671 669 678 691 697 701 703 706 708 715 716 724 725 733 735 737 734 724 718 719 716 721 731 741 735 715 716 718 716 717 713 703
513 508 521 541 561 577 591 603 613 622 642 658 662 668 669 667 666 673 687 696 698 699 704 707 714 719 727 727 728 726 733 725 717 718 723 724 724 721 740 730 734 704 695 699 704 714 695
512 515 527 542 558 573 587 599 606 622 641 653 662 669 671 669 672 676 682 693 695 695 697 704 712 720 726 731 731 723 713 705 715 719 729 727 727 727 723 723 704 692 696 701 722 705 690
513 521 532 544 558 573 585 598 610 624 641 651 660 667 671 673 680 686 686 688 688 687 692 696 710 716 727 729 719 714 718 708 701 700 711 712 714 722 716 727 721 693 705 703 686 688 688
520 528 538 549 562 574 586 598 610 627 642 655 664 669 673 678 685 691 692 694 692 685 685 691 686 696 706 714 709 703 714 717 698 708 706 714 695 695 694 689 676 683 676 679 682 682 689